Weather reports worldwide

Advertisment
Mühldorf, Germany (10875): temperature & dewpoint: 08.11.2018 13:00:00 - 14.11.2018 13:00:00 (CET)Mühldorf, Germany (10875): temperature 5cm & temperature -5cm: 08.11.2018 13:00:00 - 14.11.2018 13:00:00 (CET)Mühldorf, Germany (10875): temperature -20cm & temperature -100cm: 08.11.2018 13:00:00 - 14.11.2018 13:00:00 (CET)Mühldorf, Germany (10875): wind speed & gusts: 08.11.2018 13:00:00 - 14.11.2018 13:00:00 (CET)Mühldorf, Germany (10875): wind direction: 08.11.2018 13:00:00 - 14.11.2018 13:00:00 (CET)Mühldorf, Germany (10875): reduced air pressure: 08.11.2018 13:00:00 - 14.11.2018 13:00:00 (CET)Mühldorf, Germany (10875): visibility: 08.11.2018 13:00:00 - 14.11.2018 13:00:00 (CET)Mühldorf, Germany (10875): sunshine duration: 08.11.2018 13:00:00 - 14.11.2018 13:00:00 (CET)Mühldorf, Germany (10875): precipitation: 08.11.2018 13:00:00 - 14.11.2018 13:00:00 (CET)
Date & Time tt [°C] td [°C] tt 5cm [°C] tt -5cm [°C] tt -20cm [°C] tt -100cm [°C] ff [km/h] ff [kn] fx [km/h] fx [kn] dd ppp [hPa] vv [km] sd [min] rr [mm]
14.11.2018 13:00:00 6,0 5,6 6,9 7,4 8,2 11,6 8 4 14 8 ENE 1031,8 6 0 0,0
14.11.2018 12:00:00 5,8 5,7 6,8 6,9 8,2 11,6 10 5 17 9 E 1032,2 6 0 0,0
14.11.2018 11:00:00 5,1 5,1 6,0 6,4 8,2 11,6 8 4 16 9 E 1032,7 1,2 0 0,0
14.11.2018 10:00:00 4,9 4,9 5,8 5,7 8,3 11,6 9 5 15 8 ENE 1033,2 1,3 0 0,0
14.11.2018 09:00:00 4,1 4,1 4,7 5,1 8,4 11,6 6 4 9 5 NE 1033,7 0,3 0 0,0
14.11.2018 08:00:00 3,5 3,5 3,8 4,6 8,4 11,6 4 2 10 6 ENE 1033,8 0,2 0 0,0
14.11.2018 07:00:00 2,7 2,7 3,1 4,2 8,6 11,6 2 1 4 2 N 1034,0 0,2 0 0,0
14.11.2018 06:00:00 1,6 1,6 2,0 3,8 8,7 11,6 2 1 5 3 SE 1034,0 0,2 0 0,0
14.11.2018 05:00:00 0,2 0,2 -0,1 3,6 8,8 11,6 3 2 4 2 W 1034,3 0,1 0 0,0
14.11.2018 04:00:00 0,0 0,0 -0,3 3,6 9,0 11,6 3 2 3 2 NW 1034,3 0,2 0 0,0
14.11.2018 03:00:00 0,5 0,5 -0,8 3,7 9,1 11,6 3 2 4 2 SSE 1034,4 0,2 0 0,0
14.11.2018 02:00:00 0,3 0,3 -1,9 4,2 9,2 11,6 4 2 6 3 NW 1034,7 0,2 0 0,0
14.11.2018 01:00:00 1,8 1,8 -1,0 4,7 9,3 11,6 3 2 5 3 SSW 1034,4 0,3 0 0,0
14.11.2018 00:00:00 2,3 2,3 -0,9 5,4 9,4 11,6 4 2 5 3 W 1034,5 0,5 0 0,0
13.11.2018 23:00:00 2,9 2,9 -0,2 6,3 9,4 11,6 4 2 5 3 NNW 1034,0 2,1 0 0,0
13.11.2018 22:00:00 5,3 5,1 2,0 7,3 9,5 11,6 3 2 5 3 W 1033,5 14 0 0,0
13.11.2018 21:00:00 6,9 6,3 5,0 7,8 9,5 11,6 4 2 6 3 NW 1032,9 28 0 0,0
13.11.2018 20:00:00 7,3 6,6 5,2 8,2 9,5 11,6 2 1 4 2 NNE 1032,4 27 0 0,0
13.11.2018 19:00:00 8,4 7,2 6,0 9,0 9,4 11,6 4 2 11 6 WSW 1032,2 41 0 0,2
13.11.2018 18:00:00 9,8 7,5 8,9 9,3 9,4 11,6 11 6 21 11 W 1031,8 52 0 0,0
13.11.2018 17:00:00 10,4 8,0 9,3 9,7 9,3 11,6 10 6 16 9 W 1030,7 24 0 0,0
13.11.2018 16:00:00 11,2 8,5 10,1 10,0 9,2 11,6 8 5 13 7 W 1029,7 35 0 0,0
13.11.2018 15:00:00 10,6 8,9 10,3 10,2 9,2 11,6 3 2 13 7 SW 1028,9 17 0 0,0
13.11.2018 14:00:00 10,4 8,7 10,2 10,3 9,1 11,6 11 6 25 14 W 1028,9 17 0 0,0
13.11.2018 13:00:00 10,7 8,7 10,8 10,6 9,0 11,6 14 8 28 15 NW 1028,1 19 0 0,0
13.11.2018 12:00:00 10,1 7,9 11,4 10,8 9,0 11,6 8 4 11 6 W 1028,1 24 49 0,0
13.11.2018 11:00:00 6,2 6,0 9,3 8,5 9,0 11,6 4 2 9 5 NW 1028,5 11 2 0,0
13.11.2018 10:00:00 4,7 4,7 5,8 7,4 9,0 11,6 5 3 10 6 SW 1027,9 2,1 0 0,0
13.11.2018 09:00:00 4,6 4,6 5,5 7,1 9,1 11,7 4 2 8 4 S 1026,9 0,3 0 0,0
13.11.2018 08:00:00 4,5 4,5 5,0 6,9 9,1 11,7 2 1 10 5 NE 1026,3 0,3 0 0,0
13.11.2018 07:00:00 4,6 4,6 4,9 7,0 9,1 11,7 2 1 10 5 N 1025,1 0,5 0 0,0
13.11.2018 06:00:00 4,9 4,9 5,3 7,1 9,2 11,7 4 2 11 6 E 1024,1 0,2 0 0,1
13.11.2018 05:00:00 5,2 5,2 5,6 7,3 9,2 11,7 5 3 13 7 ESE 1024,0 0,1 0 0,0
13.11.2018 04:00:00 5,6 5,6 5,9 7,4 9,2 11,7 6 3 10 5 SE 1024,3 0,2 0 0,0
13.11.2018 03:00:00 5,8 5,8 6,1 7,5 9,2 11,7 5 3 9 5 ESE 1024,5 0,2 0 0,0
13.11.2018 02:00:00 5,9 5,9 6,2 7,6 9,2 11,7 6 4 11 6 SE 1024,5 0,1 0 0,0
13.11.2018 01:00:00 6,0 6,0 6,3 7,7 9,3 11,7 5 3 10 5 SSE 1024,6 0,2 0 0,0
13.11.2018 00:00:00 6,0 6,0 6,3 7,8 9,3 11,7 6 4 11 6 SSE 1024,5 0,2 0 0,0
12.11.2018 23:00:00 6,3 6,3 6,6 7,9 9,3 11,7 8 4 11 6 E 1024,6 0,2 0 0,0
12.11.2018 22:00:00 6,6 6,6 6,9 8,0 9,3 11,7 6 3 11 6 SE 1024,5 0,1 0 0,0
12.11.2018 21:00:00 6,7 6,7 6,9 8,1 9,3 11,7 6 3 11 6 ESE 1024,2 0,1 0 0,0
12.11.2018 20:00:00 6,7 6,7 6,9 8,2 9,3 11,7 4 2 11 6 E 1023,9 0,3 0 0,0
12.11.2018 19:00:00 7,0 7,0 7,2 8,2 9,3 11,7 6 3 11 6 ENE 1023,2 0,2 0 0,0
12.11.2018 18:00:00 7,1 7,0 6,5 8,4 9,2 11,7 6 4 12 6 ENE 1022,1 1,4 0 0,0
12.11.2018 17:00:00 8,3 7,3 6,4 9,7 9,1 11,7 5 3 9 5 NNE 1021,4 10 8 0,0
12.11.2018 16:00:00 10,3 8,2 11,1 10,9 8,9 11,7 8 4 14 7 NE 1020,5 13 60 0,0
12.11.2018 15:00:00 10,9 8,4 11,7 11,3 8,8 11,7 8 5 14 8 ESE 1020,1 17 60 0,0
12.11.2018 14:00:00 10,6 8,3 11,8 11,1 8,7 11,7 8 4 13 7 ESE 1020,1 17 60 0,0
12.11.2018 13:00:00 9,0 7,8 11,3 9,8 8,7 11,7 6 3 10 5 ESE 1020,5 10 19 0,0
12.11.2018 12:00:00 7,0 6,6 8,5 8,7 8,6 11,7 8 5 15 8 E 1021,1 4,3 0 0,0
12.11.2018 11:00:00 5,9 5,8 7,2 7,6 8,6 11,7 9 5 19 11 ESE 1021,5 3,4 0 0,0
12.11.2018 10:00:00 5,6 5,6 6,6 6,9 8,7 11,7 13 7 19 10 E 1021,6 2,3 0 0,0
12.11.2018 09:00:00 5,8 5,8 6,3 6,4 8,7 11,7 10 6 21 11 ESE 1021,9 0,5 0 0,1
12.11.2018 08:00:00 5,6 5,6 5,8 6,1 8,7 11,7 8 5 16 9 E 1021,3 0,2 0 0,0
12.11.2018 07:00:00 5,1 5,1 5,3 5,8 8,8 11,7 7 4 12 6 E 1021,0 0,2 0 0,0
12.11.2018 06:00:00 4,7 4,7 4,9 5,6 8,9 11,7 6 3 13 7 SE 1021,2 0,2 0 0,0
12.11.2018 05:00:00 4,5 4,5 4,7 5,3 9,0 11,7 8 4 14 7 SSE 1021,1 0,1 0 0,0
12.11.2018 04:00:00 4,0 4,0 4,2 4,9 9,1 11,7 8 5 13 7 E 1020,8 0,1 0 0,0
12.11.2018 03:00:00 2,5 2,5 2,5 4,4 9,2 11,7 3 2 4 2 E 1021,2 0,1 0 0,0
12.11.2018 02:00:00 1,8 1,8 0,0 4,6 9,3 11,7 2 1 4 2 SSW 1021,3 0,4 0 0,0
12.11.2018 01:00:00 2,7 2,7 0,8 5,0 9,4 11,7 0 0 5 3 N 1020,9 0,3 0 0,0
12.11.2018 00:00:00 2,3 2,3 2,2 5,0 9,6 11,7 2 1 10 5 E 1020,6 0,1 0 0,0
11.11.2018 23:00:00 2,9 2,9 1,3 5,2 9,7 11,7 5 3 9 5 ESE 1020,3 0,3 0 0,0
11.11.2018 22:00:00 3,3 3,0 0,0 5,8 9,8 11,7 2 1 10 5 ESE 1020,6 0,2 0 0,0
11.11.2018 21:00:00 7,0 6,1 4,1 6,2 9,8 11,7 7 4 11 6 E 1019,2 7 0 0,0
11.11.2018 20:00:00 6,0 5,7 3,5 6,8 9,9 11,7 2 1 7 4 ESE 1019,0 6 0 0,0
11.11.2018 19:00:00 5,3 4,3 2,2 7,6 9,9 11,7 3 1 12 6 N 1018,5 5 0 0,0
11.11.2018 18:00:00 6,8 6,4 4,1 8,5 9,8 11,7 6 4 8 5 E 1018,3 6 0 0,0
11.11.2018 17:00:00 7,9 6,8 4,0 10,0 9,8 11,7 0 0 4 2 N 1018,1 4,2 7 0,0
11.11.2018 16:00:00 11,0 7,8 11,6 11,1 9,7 11,7 3 1 10 6 SE 1017,3 7 60 0,0
11.11.2018 15:00:00 10,8 7,9 12,1 11,4 9,6 11,7 7 4 12 7 ESE 1016,6 7 60 0,0
11.11.2018 14:00:00 9,6 7,4 11,4 11,0 9,5 11,7 7 4 11 6 E 1017,0 7 16 0,0
11.11.2018 13:00:00 8,8 7,3 10,7 10,2 9,5 11,7 8 4 15 8 N 1017,4 8 1 0,0
11.11.2018 12:00:00 8,0 6,5 9,6 9,5 9,5 11,7 4 2 10 6 NE 1017,5 7 0 0,0
11.11.2018 11:00:00 7,3 6,3 8,3 8,8 9,5 11,8 3 2 10 6 SSW 1017,4 5 0 0,0
11.11.2018 10:00:00 6,9 6,2 8,0 8,3 9,5 11,8 7 4 21 11 S 1016,3 4,1 0 0,0
11.11.2018 09:00:00 6,4 5,9 7,0 8,0 9,6 11,8 8 4 13 7 SE 1015,8 5 0 0,0
11.11.2018 08:00:00 6,4 6,2 6,6 7,9 9,6 11,8 7 4 15 8 S 1015,8 2,2 0 0,0
11.11.2018 07:00:00 6,6 6,4 6,8 8,0 9,6 11,8 6 3 9 5 S 1015,3 2,4 0 0,0
11.11.2018 06:00:00 6,7 6,4 6,9 8,0 9,6 11,8 5 3 9 5 SSW 1015,0 3,2 0 0,0
11.11.2018 05:00:00 6,8 6,0 6,9 8,0 9,7 11,8 4 2 8 5 SW 1014,6 4,9 0 0,0
11.11.2018 04:00:00 6,9 6,3 7,0 8,1 9,7 11,8 6 3 10 6 E 1013,6 4,1 0 0,0
11.11.2018 03:00:00 7,1 6,3 7,2 8,2 9,7 11,8 6 3 14 8 ESE 1013,1 4,6 0 0,0
11.11.2018 02:00:00 7,4 6,5 7,4 8,2 9,8 11,8 9 5 16 9 E 1012,6 6 0 0,0
11.11.2018 01:00:00 7,4 6,5 7,5 8,3 9,8 11,8 9 5 15 8 E 1012,4 6 0 0,0
11.11.2018 00:00:00 7,5 6,8 7,5 8,5 9,8 11,8 6 4 13 7 E 1012,8 5 0 0,0
10.11.2018 23:00:00 7,8 6,9 7,8 8,5 9,8 11,8 3 1 15 8 ESE 1012,6 5 0 0,0
10.11.2018 22:00:00 7,8 6,8 7,8 8,6 9,9 11,8 7 4 16 9 E 1012,3 6 0 0,0
10.11.2018 21:00:00 7,8 6,8 7,8 8,6 9,9 11,8 9 5 16 9 E 1012,0 6 0 0,0
10.11.2018 20:00:00 7,8 7,0 7,8 8,8 9,9 11,8 7 4 14 8 E 1012,1 6 0 0,0
10.11.2018 19:00:00 7,9 7,0 7,9 8,9 9,9 11,8 10 5 19 10 E 1012,2 7 0 0,0
10.11.2018 18:00:00 8,3 7,2 8,0 8,9 9,8 11,8 9 5 17 9 E 1012,0 8 0 0,0
10.11.2018 17:00:00 8,1 6,8 6,5 10,0 9,7 11,8 11 6 18 10 ENE 1011,6 8 8 0,0
10.11.2018 16:00:00 10,5 7,7 10,5 11,3 9,6 11,8 11 6 14 8 ENE 1010,9 11 60 0,0
10.11.2018 15:00:00 11,5 7,5 12,8 11,8 9,5 11,8 9 5 13 7 ESE 1010,6 22 60 0,0
10.11.2018 14:00:00 10,9 6,9 12,6 11,5 9,5 11,8 10 5 21 11 ESE 1011,1 18 60 0,0
10.11.2018 13:00:00 10,7 7,6 12,9 10,4 9,5 11,8 12 7 21 12 ESE 1011,4 14 37 0,0
10.11.2018 12:00:00 8,2 6,5 9,5 9,3 9,5 11,8 13 7 19 10 E 1012,7 7 0 0,0
10.11.2018 11:00:00 7,7 6,2 8,7 8,9 9,5 11,8 12 6 19 10 E 1013,4 6 0 0,0
10.11.2018 10:00:00 7,7 6,5 8,6 8,5 9,5 11,8 11 6 16 9 ESE 1013,4 5 0 0,0
10.11.2018 09:00:00 7,3 6,2 7,7 8,1 9,5 11,8 11 6 16 9 E 1013,7 5 0 0,0
10.11.2018 08:00:00 7,3 6,4 7,4 8,0 9,5 11,8 6 3 11 6 ESE 1013,9 4,8 0 0,0
10.11.2018 07:00:00 7,1 6,2 7,1 8,0 9,5 11,8 6 4 14 8 SE 1013,9 4,9 0 0,0
10.11.2018 06:00:00 7,2 6,4 7,3 8,1 9,5 11,8 6 3 11 6 ESE 1013,7 3,8 0 0,0
10.11.2018 05:00:00 7,2 6,5 7,3 8,2 9,6 11,8 6 3 11 6 E 1014,0 3,6 0 0,0
10.11.2018 04:00:00 7,5 6,7 7,5 8,3 9,6 11,8 7 4 13 7 SE 1014,2 4,1 0 0,0
10.11.2018 03:00:00 7,8 6,7 7,8 8,4 9,6 11,8 9 5 14 8 E 1014,3 3,7 0 0,0
10.11.2018 02:00:00 8,0 7,0 8,0 8,4 9,6 11,8 8 4 19 10 ESE 1014,7 4,4 0 0,0
10.11.2018 01:00:00 8,2 7,1 8,2 8,5 9,6 11,8 8 4 16 8 ESE 1015,1 4,9 0 0,0
10.11.2018 00:00:00 8,4 7,1 8,3 8,6 9,6 11,8 7 4 14 8 ESE 1015,7 5 0 0,0
09.11.2018 23:00:00 8,4 7,4 8,4 8,6 9,6 11,8 8 5 14 8 ESE 1015,8 4,7 0 0,0
09.11.2018 22:00:00 8,5 7,4 8,4 8,6 9,6 11,8 7 4 12 7 E 1015,9 4,2 0 0,0
09.11.2018 21:00:00 8,3 7,4 8,2 8,6 9,6 11,8 3 2 7 4 E 1016,2 3,9 0 0,0
09.11.2018 20:00:00 8,2 7,4 8,2 8,6 9,6 11,8 5 3 10 5 E 1016,3 3,3 0 0,0
09.11.2018 19:00:00 8,1 7,0 8,1 8,7 9,6 11,9 4 2 12 6 E 1016,8 4,5 0 0,0
09.11.2018 18:00:00 8,0 6,8 8,0 8,9 9,6 11,9 6 4 13 7 E 1016,9 5 0 0,0
09.11.2018 17:00:00 8,0 6,9 8,1 9,1 9,6 11,9 5 3 11 6 SE 1017,0 4,9 0 0,0
09.11.2018 16:00:00 8,3 7,0 8,6 9,4 9,5 11,9 4 2 7 4 ENE 1017,3 5 0 0,0
09.11.2018 15:00:00 8,3 6,9 8,8 9,5 9,5 11,9 3 1 10 6 SE 1017,4 6 0 0,0
09.11.2018 14:00:00 8,2 6,7 9,0 9,4 9,5 11,9 3 2 5 3 WSW 1017,8 6 0 0,0
09.11.2018 13:00:00 8,0 6,9 8,6 9,2 9,4 11,9 4 2 10 5 S 1018,4 6 0 0,0
09.11.2018 12:00:00 8,1 7,2 8,7 9,1 9,4 11,9 5 3 11 6 W 1019,0 4,6 0 0,0
09.11.2018 11:00:00 8,1 6,9 8,7 8,8 9,4 11,9 3 2 11 6 W 1019,2 4,6 0 0,0
09.11.2018 10:00:00 7,9 6,7 8,5 8,6 9,4 11,9 6 4 10 6 WSW 1019,1 6 0 0,0
09.11.2018 09:00:00 7,9 7,0 8,0 8,4 9,4 11,9 4 2 10 5 WSW 1019,2 4,0 0 0,0
09.11.2018 08:00:00 7,9 7,2 7,8 8,2 9,4 11,9 4 2 8 5 SW 1018,7 3,4 0 0,0
09.11.2018 07:00:00 8,1 7,2 7,8 8,2 9,5 11,9 4 2 10 5 SSW 1018,5 4,1 0 0,0
09.11.2018 06:00:00 7,9 7,7 7,8 8,2 9,5 11,9 2 1 3 2 N 1018,1 2,7 0 0,0
09.11.2018 05:00:00 7,9 7,7 7,8 8,1 9,5 11,9 3 2 6 3 W 1018,0 2,6 0 0,0
09.11.2018 04:00:00 7,9 7,5 7,8 8,0 9,5 11,9 0 0 6 4 N 1017,7 3,1 0 0,0
09.11.2018 03:00:00 7,6 7,4 7,5 7,9 9,5 11,9 4 2 12 6 E 1017,6 2,8 0 0,0
09.11.2018 02:00:00 7,5 7,1 7,3 7,9 9,6 11,9 7 4 13 7 E 1018,0 3,6 0 0,0
09.11.2018 01:00:00 7,3 7,2 7,3 8,1 9,6 11,9 8 5 16 9 E 1018,4 2,1 0 0,0
09.11.2018 00:00:00 7,3 7,3 7,5 8,0 9,7 11,9 10 5 17 9 E 1019,1 1,5 0 0,0
08.11.2018 23:00:00 7,2 7,2 7,3 8,0 9,7 11,9 11 6 18 10 E 1019,7 0,4 0 0,0
08.11.2018 22:00:00 6,9 6,9 7,1 7,9 9,8 11,9 10 6 19 10 E 1020,4 2,1 0 0,0
08.11.2018 21:00:00 6,7 6,7 6,9 7,7 9,8 11,9 9 5 14 8 E 1020,6 0,7 0 0,0
08.11.2018 20:00:00 6,1 6,1 6,1 7,5 9,8 11,9 6 3 12 6 E 1021,2 0,1 0 0,0
08.11.2018 19:00:00 7,2 7,0 4,5 8,2 9,8 11,9 6 4 8 4 E 1021,1 4,7 0 0,0
08.11.2018 18:00:00 8,7 7,4 4,4 9,4 9,7 11,9 5 3 13 7 E 1020,8 10 0 0,0
08.11.2018 17:00:00 11,0 7,6 9,1 10,6 9,5 11,9 8 5 14 8 NE 1020,7 18 13 0,0
08.11.2018 16:00:00 12,2 8,2 12,1 11,8 9,4 11,9 11 6 17 9 ENE 1020,7 28 51 0,0
08.11.2018 15:00:00 13,8 8,4 16,0 12,2 9,2 11,9 9 5 22 12 NE 1020,8 32 28 0,0
08.11.2018 14:00:00 13,7 8,1 15,3 12,8 9,0 11,9 14 8 22 12 NE 1021,4 24 59 0,0
08.11.2018 13:00:00 13,4 8,7 15,6 12,1 8,9 11,9 7 4 13 7 ENE 1021,9 15 39 0,0

tt = temperature
td = dewpoint
tt 5cm = temperature 5cm
tt -5cm = temperature -5cm
tt -20cm = temperature -20cm
tt -100cm = temperature -100cm
ff = wind speed
fx = gusts
dd = wind direction
ppp = reduced air pressure
vv = visibility
sd = sunshine duration
rr = precipitation

Next stations